カタログに戻る

DELTA 1 DEB

運用中SSO
NORAD 21457·DEBRIS·🇺🇸 United States

打ち上げ Jun 12, 1975 から Vandenberg Space Force Base

Loading…

次のパス (今後24時間)

TLE

最新Source: Space-Track

元期: Sep 14, 2026, 05:04 UTC

1 21457U 75052ER  26257.21139238  .00000798  00000-0  11281-2 0  9998
2 21457  99.9534 169.7747 0286763 302.6794 216.4707 13.44626841714293

AllMySatでDELTA 1 DEBをリアルタイム追跡

Download on the App Store